| time (UTC) | temp F | wind direction | speed MPH | gust MPH | rain 1hr in | rain 24hr in | rain mn in | humidity % | barometer mb |
| 20260502183515 | 75 | 358 | 1.0 | 2.0 | 0.00 | 0.00 | 0.00 | 34 | 995.8 |
| 20260502182515 | 74 | 283 | 1.0 | 4.0 | 0.00 | 0.00 | 0.00 | 35 | 996.0 |
| 20260502181515 | 74 | 278 | 1.0 | 3.0 | 0.00 | 0.00 | 0.00 | 34 | 996.0 |
| 20260502180535 | 75 | 245 | 1.0 | 4.0 | 0.00 | 0.00 | 0.00 | 37 | 996.1 |
| 20260502170515 | 72 | 0.0 | 1.0 | 0.00 | 0.00 | 0.00 | 36 | 996.9 | |
| 20260502163515 | 72 | 87 | 1.0 | 4.0 | 0.00 | 0.00 | 0.00 | 38 | 996.9 |
| 20260502162515 | 72 | 350 | 1.0 | 5.0 | 0.00 | 0.00 | 0.00 | 36 | 996.9 |
| 20260502161535 | 70 | 0.0 | 2.0 | 0.00 | 0.00 | 0.00 | 38 | 996.9 | |
| 20260502160515 | 69 | 0.0 | 1.0 | 0.00 | 0.00 | 0.00 | 39 | 996.8 | |
| 20260502151535 | 67 | 0.0 | 0.0 | 0.00 | 0.00 | 0.00 | 46 | 996.6 | |
| 20260502150515 | 67 | 292 | 0.0 | 1.0 | 0.00 | 0.00 | 0.00 | 45 | 996.6 |
| 20260502130514 | 57 | 288 | 0.0 | 1.0 | 0.00 | 0.01 | 0.00 | 78 | 995.9 |
| 20260502123515 | 55 | 285 | 0.0 | 1.0 | 0.00 | 0.01 | 0.00 | 84 | 995.5 |
| 20260502122515 | 54 | 0.0 | 0.0 | 0.00 | 0.01 | 0.00 | 88 | 995.2 | |
| 20260502121517 | 53 | 290 | 0.0 | 1.0 | 0.00 | 0.01 | 0.00 | 90 | 994.9 |
| 20260502120517 | 53 | 0.0 | 0.0 | 0.00 | 0.01 | 0.00 | 92 | 994.7 | |
| 20260502115537 | 52 | 289 | 0.0 | 1.0 | 0.00 | 0.01 | 0.00 | 92 | 994.7 |
| 20260502114517 | 53 | 0.0 | 0.0 | 0.00 | 0.01 | 0.00 | 92 | 994.5 | |
| 20260502113517 | 53 | 0.0 | 1.0 | 0.00 | 0.01 | 0.00 | 92 | 994.3 | |
| 20260502112517 | 53 | 289 | 0.0 | 1.0 | 0.00 | 0.01 | 0.00 | 91 | 994.3 |
| 20260502111537 | 53 | 289 | 0.0 | 1.0 | 0.00 | 0.01 | 0.00 | 91 | 994.0 |
| 20260502110517 | 53 | 285 | 0.0 | 1.0 | 0.00 | 0.01 | 0.00 | 91 | 994.1 |
| 20260502105517 | 53 | 0.0 | 0.0 | 0.00 | 0.01 | 0.00 | 91 | 994.0 | |
| 20260502104517 | 53 | 0.0 | 0.0 | 0.00 | 0.01 | 0.00 | 91 | 994.1 | |
| 20260502103517 | 53 | 0.0 | 0.0 | 0.00 | 0.01 | 0.00 | 90 | 993.8 | |
| 20260502102517 | 53 | 0.0 | 0.0 | 0.00 | 0.01 | 0.00 | 90 | 993.6 | |
| 20260502101517 | 53 | 0.0 | 1.0 | 0.00 | 0.01 | 0.00 | 90 | 993.6 | |
| 20260502100517 | 53 | 0.0 | 0.0 | 0.00 | 0.01 | 0.00 | 89 | 993.6 | |
| 20260502091517 | 54 | 291 | 0.0 | 2.0 | 0.00 | 0.01 | 0.00 | 87 | 993.6 |
| 20260502090517 | 54 | 0.0 | 0.0 | 0.00 | 0.01 | 0.00 | 87 | 993.6 | |
| 20260502071515 | 54 | 0.0 | 0.0 | 0.00 | 0.01 | 0.00 | 88 | 993.6 | |
| 20260502070517 | 54 | 0.0 | 0.0 | 0.00 | 0.01 | 0.00 | 87 | 993.7 | |
| 20260502065517 | 55 | 0.0 | 0.0 | 0.00 | 0.01 | 0.00 | 86 | 993.7 | |
| 20260502064537 | 54 | 0.0 | 0.0 | 0.00 | 0.01 | 0.00 | 87 | 993.8 | |
| 20260502063517 | 55 | 0.0 | 0.0 | 0.00 | 0.01 | 0.00 | 87 | 993.9 | |
| 20260502062517 | 54 | 0.0 | 0.0 | 0.00 | 0.01 | 0.00 | 87 | 993.7 | |
| 20260502061517 | 55 | 0.0 | 0.0 | 0.00 | 0.01 | 0.00 | 87 | 993.6 | |
| 20260502060517 | 55 | 0.0 | 0.0 | 0.00 | 0.01 | 0.00 | 87 | 993.7 | |
| 20260502055517 | 55 | 0.0 | 0.0 | 0.00 | 0.01 | 0.00 | 87 | 993.7 | |
| 20260502054515 | 55 | 0.0 | 0.0 | 0.00 | 0.01 | 0.00 | 88 | 993.7 | |
| 20260502053517 | 55 | 0.0 | 0.0 | 0.00 | 0.01 | 0.00 | 87 | 993.6 | |
| 20260502052517 | 55 | 0.0 | 0.0 | 0.00 | 0.01 | 0.00 | 88 | 993.7 | |
| 20260502051537 | 55 | 0.0 | 0.0 | 0.00 | 0.01 | 0.00 | 88 | 993.7 | |
| 20260502050517 | 54 | 0.0 | 0.0 | 0.00 | 0.01 | 0.00 | 89 | 993.8 | |
| 20260502045515 | 54 | 0.0 | 0.0 | 0.00 | 0.01 | 0.01 | 90 | 993.7 | |
| 20260502044535 | 54 | 0.0 | 0.0 | 0.00 | 0.01 | 0.01 | 89 | 993.6 | |
| 20260502043515 | 54 | 0.0 | 0.0 | 0.00 | 0.01 | 0.01 | 89 | 993.6 | |
| 20260502042515 | 55 | 0.0 | 0.0 | 0.00 | 0.01 | 0.01 | 89 | 993.6 | |
| 20260502041515 | 55 | 0.0 | 0.0 | 0.00 | 0.01 | 0.01 | 88 | 993.5 | |
| 20260502040515 | 55 | 0.0 | 0.0 | 0.00 | 0.01 | 0.01 | 87 | 993.4 | |
| 20260502035515 | 56 | 0.0 | 0.0 | 0.00 | 0.01 | 0.01 | 86 | 993.4 | |
| 20260502034555 | 56 | 0.0 | 0.0 | 0.00 | 0.01 | 0.01 | 86 | 993.5 | |
| 20260502033515 | 57 | 0.0 | 0.0 | 0.00 | 0.01 | 0.01 | 84 | 993.5 | |
| 20260502032535 | 57 | 0.0 | 0.0 | 0.00 | 0.01 | 0.01 | 84 | 993.5 | |
| 20260502031535 | 58 | 0.0 | 0.0 | 0.00 | 0.01 | 0.01 | 84 | 993.4 | |
| 20260502030515 | 58 | 0.0 | 0.0 | 0.00 | 0.01 | 0.01 | 82 | 993.1 | |
| 20260502025515 | 58 | 0.0 | 0.0 | 0.00 | 0.01 | 0.01 | 81 | 993.0 | |
| 20260502024535 | 59 | 0.0 | 0.0 | 0.00 | 0.01 | 0.01 | 80 | 993.1 | |
| 20260502023515 | 59 | 0.0 | 0.0 | 0.00 | 0.01 | 0.01 | 79 | 993.1 | |
| 20260502022515 | 59 | 0.0 | 0.0 | 0.00 | 0.01 | 0.01 | 77 | 993.0 | |
| 20260502021515 | 59 | 0.0 | 0.0 | 0.00 | 0.01 | 0.01 | 77 | 992.7 | |
| 20260502020515 | 59 | 0.0 | 0.0 | 0.00 | 0.01 | 0.01 | 76 | 992.6 | |
| 20260502015515 | 60 | 0.0 | 0.0 | 0.00 | 0.01 | 0.01 | 76 | 992.3 | |
| 20260502014515 | 60 | 0.0 | 0.0 | 0.00 | 0.01 | 0.01 | 76 | 992.1 | |
| 20260502013515 | 60 | 0.0 | 0.0 | 0.00 | 0.01 | 0.01 | 73 | 991.9 | |
| 20260502012515 | 60 | 0.0 | 0.0 | 0.00 | 0.01 | 0.01 | 73 | 991.7 | |
| 20260502011515 | 61 | 0.0 | 0.0 | 0.00 | 0.01 | 0.01 | 72 | 991.6 | |
| 20260502010515 | 61 | 0.0 | 0.0 | 0.00 | 0.01 | 0.01 | 71 | 991.4 | |
| 20260502005535 | 61 | 0.0 | 0.0 | 0.00 | 0.01 | 0.01 | 69 | 991.3 | |
| 20260502004515 | 62 | 0.0 | 0.0 | 0.00 | 0.01 | 0.01 | 68 | 991.1 | |
| 20260502003515 | 62 | 0.0 | 0.0 | 0.00 | 0.01 | 0.01 | 67 | 991.2 | |
| 20260502002515 | 62 | 0.0 | 0.0 | 0.00 | 0.01 | 0.01 | 66 | 991.1 | |
| 20260502001515 | 62 | 0.0 | 0.0 | 0.00 | 0.01 | 0.01 | 66 | 990.9 | |
| 20260502000515 | 63 | 0.0 | 0.0 | 0.00 | 0.01 | 0.01 | 65 | 990.7 | |
| 20260501235515 | 63 | 0.0 | 0.0 | 0.00 | 0.01 | 0.01 | 63 | 990.6 | |
| 20260501234515 | 63 | 0.0 | 0.0 | 0.00 | 0.01 | 0.01 | 62 | 990.5 | |
| 20260501233515 | 63 | 0.0 | 0.0 | 0.00 | 0.01 | 0.01 | 63 | 990.4 | |
| 20260501232515 | 63 | 0.0 | 0.0 | 0.00 | 0.01 | 0.01 | 62 | 990.2 | |
| 20260501231515 | 63 | 0.0 | 0.0 | 0.00 | 0.01 | 0.01 | 63 | 990.1 | |
| 20260501230535 | 64 | 0.0 | 0.0 | 0.00 | 0.01 | 0.01 | 62 | 990.0 | |
| 20260501225515 | 64 | 0.0 | 0.0 | 0.00 | 0.01 | 0.01 | 60 | 990.0 | |
| 20260501224515 | 64 | 0.0 | 0.0 | 0.00 | 0.01 | 0.01 | 61 | 990.0 | |
| 20260501223515 | 64 | 0.0 | 0.0 | 0.00 | 0.01 | 0.01 | 61 | 990.0 | |
| 20260501222535 | 64 | 74 | 0.0 | 6.0 | 0.00 | 0.01 | 0.01 | 58 | 990.0 |
| 20260501221535 | 64 | 72 | 0.0 | 4.0 | 0.00 | 0.01 | 0.01 | 59 | 990.0 |
| 20260501220515 | 64 | 0.0 | 0.0 | 0.00 | 0.01 | 0.01 | 59 | 989.9 | |
| 20260501215515 | 64 | 90 | 1.0 | 7.0 | 0.00 | 0.01 | 0.01 | 58 | 990.0 |
| 20260501214515 | 63 | 121 | 1.0 | 6.0 | 0.00 | 0.01 | 0.01 | 58 | 990.0 |
| 20260501213515 | 63 | 72 | 2.0 | 6.0 | 0.00 | 0.01 | 0.01 | 58 | 990.0 |
| 20260501212515 | 64 | 79 | 4.0 | 9.0 | 0.00 | 0.01 | 0.01 | 56 | 990.0 |
| 20260501211535 | 64 | 31 | 0.0 | 5.0 | 0.00 | 0.01 | 0.01 | 56 | 990.0 |
| 20260501210515 | 64 | 43 | 2.0 | 6.0 | 0.00 | 0.01 | 0.01 | 58 | 990.2 |
| 20260501205515 | 64 | 33 | 2.0 | 8.0 | 0.00 | 0.01 | 0.01 | 57 | 990.5 |
| 20260501204515 | 64 | 29 | 4.0 | 9.0 | 0.00 | 0.01 | 0.01 | 56 | 990.7 |
| 20260501203515 | 64 | 0.0 | 5.0 | 0.00 | 0.01 | 0.01 | 56 | 990.5 | |
| 20260501202515 | 64 | 75 | 3.0 | 7.0 | 0.00 | 0.01 | 0.01 | 57 | 991.0 |
| 20260501201515 | 65 | 85 | 3.0 | 9.0 | 0.00 | 0.01 | 0.01 | 56 | 991.0 |
| 20260501200535 | 65 | 100 | 1.0 | 9.0 | 0.00 | 0.01 | 0.01 | 57 | 990.9 |
| 20260501195515 | 64 | 94 | 1.0 | 5.0 | 0.00 | 0.01 | 0.01 | 58 | 990.4 |
| 20260501194515 | 63 | 17 | 2.0 | 5.0 | 0.00 | 0.01 | 0.01 | 56 | 990.2 |
| 20260501193515 | 64 | 67 | 3.0 | 9.0 | 0.00 | 0.01 | 0.01 | 57 | 990.4 |
| 20260501192515 | 63 | 45 | 6.0 | 16.0 | 0.00 | 0.01 | 0.01 | 57 | 990.5 |
| 20260501191515 | 63 | 69 | 5.0 | 12.0 | 0.00 | 0.01 | 0.01 | 57 | 989.8 |
| 20260501190515 | 63 | 44 | 2.0 | 6.0 | 0.00 | 0.01 | 0.01 | 58 | 990.4 |
| 20260501185515 | 63 | 103 | 0.0 | 5.0 | 0.00 | 0.01 | 0.01 | 58 | 990.4 |
| 20260501184515 | 63 | 84 | 0.0 | 10.0 | 0.00 | 0.01 | 0.01 | 58 | 990.2 |